Tucson Davis Monthan, AZ

8:31 PM MST on June 24, 2018 (GMT -0700)
Davis-Monthan Air Force Base

Weather History for KDMA - December, 2017

Change the Weather History Date:

Wednesday, December 20, 2017

  Actual Average Record
Temperature  
Mean Temperature 54 °F -  
Max Temperature 71 °F 63 °F 78 °F (1982)
Min Temperature 38 °F 39 °F 27 °F (1949)
Degree Days  
Heating Degree Days 10    
Growing Degree Days 4 (Base 50)    
Moisture  
Dew Point 33 °F    
Average Humidity 53    
Maximum Humidity 81    
Minimum Humidity 21    
Precipitation  
Precipitation 0.00 in - - ()
Sea Level Pressure  
Sea Level Pressure 30.04 in    
Wind  
Wind Speed 7 mph (SE)    
Max Wind Speed 12 mph    
Max Gust Speed -    
Visibility 10 miles    
Events      
Averages and records for this station are not official NWS values.
T = Trace of Precipitation, MM = Missing Value Source: NWS Daily Summary

Daily Weather History Graph

Daily Weather History Graph

Search for Another Location

Airport or City:

Astronomy

Dec. 20, 2017 Rise Set
Actual Time 7:20 AM MST 5:22 PM MST
Civil Twilight 6:52 AM MST 5:49 PM MST
Nautical Twilight 6:22 AM MST 6:20 PM MST
Astronomical Twilight 5:52 AM MST 6:50 PM MST
Moon 9:02 AM MST (12/20) 7:41 PM MST (12/20)
Length of Visible Light 10h 56m
Length of Day
10h 02m
Waxing Crescent, 6% of the Moon is Illuminated
Dec 20
Waxing Crescent
Dec 26
First Quarter
Jan 1
Full
Jan 8
Last Quarter
Jan 16
New

Hourly Weather History & Observations

Time (MST) Temp. Windchill Dew Point Humidity Pressure Visibility Wind Dir Wind Speed Gust Speed Precip Events Conditions
12:58 AM 42.4 °F 37.5 °F 37.0 °F 81% 30.15 in 10.0 mi SE 8.1 mph - N/A   Clear
1:58 AM 41.9 °F 37.5 °F 35.2 °F 77% 30.14 in 10.0 mi SSE 6.9 mph - N/A   Clear
2:58 AM 41.4 °F 34.7 °F 35.1 °F 78% 30.13 in 10.0 mi SE 11.5 mph - N/A   Clear
3:58 AM 39.6 °F 33.5 °F 34.2 °F 81% 30.12 in 10.0 mi SSE 9.2 mph - N/A   Clear
4:58 AM 39.7 °F 33.2 °F 34.2 °F 80% 30.12 in 10.0 mi SE 10.4 mph - N/A   Clear
5:58 AM 39.7 °F 35.6 °F 33.4 °F 78% 30.13 in 10.0 mi SE 5.8 mph - N/A   Clear
6:58 AM 38.8 °F 32.6 °F 32.9 °F 79% 30.15 in 10.0 mi SE 9.2 mph - N/A   Clear
7:58 AM 41.9 °F 35.4 °F 32.5 °F 69% 30.14 in 10.0 mi ESE 11.5 mph - N/A   Clear
8:58 AM 45.7 °F 42.0 °F 33.8 °F 63% 30.15 in 10.0 mi ESE 6.9 mph - N/A   Clear
9:58 AM 52.7 °F - 33.6 °F 48% 30.15 in 10.0 mi SE 6.9 mph - N/A   Clear
10:58 AM 60.8 °F - 32.0 °F 34% 30.14 in 10.0 mi SE 6.9 mph - N/A   Clear
11:58 AM 61.9 °F - 37.2 °F 40% 30.08 in 10.0 mi Calm Calm - N/A   Clear
12:58 PM 69.1 °F - 34.5 °F 28% 30.02 in 10.0 mi ESE 3.5 mph - N/A   Clear
1:58 PM 71.4 °F - 29.5 °F 21% 29.98 in 10.0 mi Calm Calm - N/A   Clear
2:58 PM 70.2 °F - 29.5 °F 22% 29.98 in 10.0 mi Calm Calm - N/A   Clear
3:58 PM 70.2 °F - 28.4 °F 21% 29.95 in 10.0 mi Calm Calm - N/A   Clear
4:58 PM 68.0 °F - 27.7 °F 22% 29.94 in 10.0 mi Calm Calm - N/A   Clear
5:58 PM 59.4 °F - 22.5 °F 24% 29.94 in 10.0 mi Calm Calm - N/A   Clear
6:58 PM 54.0 °F - 35.8 °F 50% 29.96 in 10.0 mi SE 4.6 mph - N/A   Clear
7:58 PM 50.7 °F - 35.1 °F 55% 29.96 in 5.0 mi SE 8.1 mph - N/A   Haze
8:58 PM 51.1 °F - 33.6 °F 51% 29.94 in 10.0 mi South 8.1 mph - N/A   Clear
9:58 PM 49.6 °F - 32.7 °F 52% 29.93 in 10.0 mi SE 8.1 mph - N/A   Overcast
10:58 PM 49.1 °F - 33.6 °F 55% 29.96 in 10.0 mi ENE 8.1 mph - N/A   Scattered Clouds
11:58 PM 48.6 °F - 32.7 °F 54% 29.89 in 10.0 mi ESE 4.6 mph - N/A   Clear